| time (UTC) | temp C | wind direction | speed KPH | gust KPH | rain 1hr cm | rain 24hr cm | rain mn cm | humidity % | barometer mb |
| 20260505171524 | 9 | 318 | 8.0 | 32.2 | 0.00 | 0.00 | 0.00 | 31 | 1009.6 |
| 20260505170017 | 10 | 323 | 12.9 | 27.4 | 0.00 | 0.00 | 0.00 | 31 | 1009.6 |
| 20260505164516 | 10 | 355 | 11.3 | 16.1 | 0.00 | 0.00 | 0.00 | 31 | 1009.6 |
| 20260505163019 | 8 | 351 | 9.7 | 27.4 | 0.00 | 0.00 | 0.00 | 30 | 1009.7 |
| 20260505161506 | 10 | 290 | 8.0 | 22.5 | 0.00 | 0.00 | 0.00 | 33 | 1009.7 |
| 20260505153059 | 8 | 338 | 12.9 | 22.5 | 0.00 | 0.00 | 0.00 | 32 | 1009.6 |
| 20260505151602 | 8 | 355 | 17.7 | 27.4 | 0.00 | 0.00 | 0.00 | 35 | 1009.3 |
| 20260505124545 | 6 | 307 | 8.0 | 12.9 | 0.00 | 0.00 | 0.00 | 49 | 1008.4 |
| 20260505123040 | 5 | 309 | 4.8 | 11.3 | 0.00 | 0.00 | 0.00 | 52 | 1008.4 |
| 20260505121537 | 5 | 310 | 4.8 | 11.3 | 0.00 | 0.00 | 0.00 | 53 | 1008.1 |
| 20260505120038 | 5 | 295 | 1.6 | 6.4 | 0.00 | 0.00 | 0.00 | 55 | 1007.9 |
| 20260505114532 | 4 | 317 | 6.4 | 11.3 | 0.00 | 0.00 | 0.00 | 56 | 1007.6 |
| 20260505113029 | 4 | 301 | 3.2 | 8.0 | 0.00 | 0.00 | 0.00 | 57 | 1007.1 |
| 20260505111525 | 3 | 281 | 3.2 | 8.0 | 0.00 | 0.00 | 0.00 | 59 | 1006.9 |
| 20260505101548 | 4 | 317 | 3.2 | 9.7 | 0.00 | 0.00 | 0.00 | 59 | 1006.3 |
| 20260505100051 | 4 | 316 | 3.2 | 14.5 | 0.00 | 0.00 | 0.00 | 59 | 1006.2 |
| 20260505094514 | 5 | 281 | 1.6 | 4.8 | 0.00 | 0.00 | 0.00 | 57 | 1006.1 |
| 20260505093022 | 5 | 313 | 3.2 | 8.0 | 0.00 | 0.00 | 0.00 | 57 | 1006.0 |
| 20260505091546 | 5 | 268 | 3.2 | 8.0 | 0.00 | 0.00 | 0.00 | 56 | 1005.8 |
| 20260505090040 | 5 | 327 | 1.6 | 8.0 | 0.00 | 0.00 | 0.00 | 56 | 1005.5 |
| 20260505084635 | 5 | 274 | 3.2 | 6.4 | 0.00 | 0.00 | 0.00 | 56 | 1005.3 |
| 20260505083033 | 5 | 313 | 1.6 | 6.4 | 0.00 | 0.00 | 0.00 | 56 | 1005.1 |
| 20260505081535 | 5 | 294 | 0.0 | 4.8 | 0.00 | 0.00 | 0.00 | 56 | 1004.8 |
| 20260505080028 | 5 | 294 | 1.6 | 8.0 | 0.00 | 0.00 | 0.00 | 58 | 1004.8 |
| 20260505074525 | 5 | 279 | 1.6 | 6.4 | 0.00 | 0.00 | 0.00 | 57 | 1004.7 |
| 20260505073023 | 5 | 248 | 1.6 | 4.8 | 0.00 | 0.00 | 0.00 | 56 | 1004.7 |
| 20260505071521 | 5 | 303 | 3.2 | 6.4 | 0.00 | 0.00 | 0.00 | 55 | 1004.7 |
| 20260505070019 | 6 | 279 | 6.4 | 11.3 | 0.00 | 0.00 | 0.00 | 53 | 1004.7 |
| 20260505064515 | 6 | 282 | 6.4 | 11.3 | 0.00 | 0.00 | 0.00 | 52 | 1004.7 |
| 20260505063017 | 6 | 258 | 4.8 | 11.3 | 0.00 | 0.00 | 0.00 | 52 | 1004.8 |
| 20260505061512 | 6 | 273 | 4.8 | 11.3 | 0.00 | 0.00 | 0.00 | 51 | 1004.8 |
| 20260505060010 | 6 | 305 | 4.8 | 9.7 | 0.00 | 0.00 | 0.00 | 50 | 1004.7 |
| 20260505054537 | 7 | 263 | 4.8 | 11.3 | 0.00 | 0.00 | 0.00 | 50 | 1004.8 |
| 20260505053042 | 7 | 263 | 3.2 | 9.7 | 0.00 | 0.00 | 0.00 | 49 | 1004.8 |
| 20260505051554 | 7 | 273 | 4.8 | 8.0 | 0.00 | 0.00 | 0.00 | 48 | 1004.6 |
| 20260505041527 | 8 | 284 | 3.2 | 9.7 | 0.00 | 0.00 | 0.00 | 45 | 1004.5 |
| 20260505040025 | 8 | 314 | 3.2 | 6.4 | 0.00 | 0.00 | 0.00 | 45 | 1004.4 |
| 20260505034520 | 8 | 318 | 4.8 | 12.9 | 0.00 | 0.00 | 0.00 | 43 | 1004.4 |
| 20260505033018 | 8 | 327 | 8.0 | 19.3 | 0.00 | 0.00 | 0.00 | 42 | 1004.4 |
| 20260505031516 | 8 | 5 | 8.0 | 17.7 | 0.00 | 0.00 | 0.00 | 43 | 1004.4 |
| 20260505030011 | 9 | 21 | 14.5 | 27.4 | 0.00 | 0.00 | 0.00 | 42 | 1004.2 |
| 20260505024510 | 9 | 355 | 16.1 | 27.4 | 0.00 | 0.00 | 0.00 | 43 | 1003.9 |
| 20260505023003 | 10 | 52 | 16.1 | 29.0 | 0.00 | 0.00 | 0.00 | 41 | 1003.4 |
| 20260505021558 | 10 | 5 | 14.5 | 25.7 | 0.00 | 0.00 | 0.00 | 41 | 1003.0 |
| 20260505020103 | 10 | 325 | 4.8 | 22.5 | 0.00 | 0.00 | 0.00 | 40 | 1002.6 |
| 20260505014554 | 11 | 338 | 6.4 | 14.5 | 0.00 | 0.00 | 0.00 | 40 | 1002.3 |
| 20260505013100 | 11 | 322 | 11.3 | 20.9 | 0.00 | 0.00 | 0.00 | 39 | 1002.1 |
| 20260505011548 | 11 | 344 | 14.5 | 27.4 | 0.00 | 0.00 | 0.00 | 38 | 1001.7 |
| 20260505010048 | 12 | 332 | 11.3 | 22.5 | 0.00 | 0.00 | 0.00 | 39 | 1001.5 |
| 20260505004538 | 12 | 327 | 9.7 | 25.7 | 0.00 | 0.00 | 0.00 | 39 | 1001.3 |
| 20260505003035 | 12 | 330 | 17.7 | 35.4 | 0.00 | 0.00 | 0.00 | 40 | 1001.1 |
| 20260505001533 | 13 | 305 | 19.3 | 33.8 | 0.00 | 0.00 | 0.00 | 38 | 1000.7 |
| 20260505000026 | 13 | 293 | 6.4 | 30.6 | 0.00 | 0.00 | 0.00 | 38 | 1000.5 |
| 20260504234524 | 13 | 355 | 14.5 | 38.6 | 0.00 | 0.00 | 0.00 | 38 | 1000.2 |
| 20260504233020 | 14 | 311 | 12.9 | 33.8 | 0.00 | 0.00 | 0.00 | 36 | 1000.1 |
| 20260504231516 | 15 | 59 | 17.7 | 38.6 | 0.00 | 0.00 | 0.00 | 34 | 999.7 |
| 20260504230053 | 15 | 355 | 14.5 | 32.2 | 0.00 | 0.00 | 0.00 | 36 | 999.5 |
| 20260504224541 | 16 | 360 | 19.3 | 35.4 | 0.00 | 0.00 | 0.00 | 33 | 999.2 |
| 20260504223008 | 16 | 342 | 12.9 | 29.0 | 0.00 | 0.00 | 0.00 | 32 | 999.0 |
| 20260504221505 | 17 | 342 | 12.9 | 30.6 | 0.00 | 0.00 | 0.00 | 31 | 998.6 |
| 20260504220035 | 17 | 284 | 14.5 | 32.2 | 0.00 | 0.00 | 0.00 | 32 | 998.3 |
| 20260504214533 | 17 | 284 | 17.7 | 27.4 | 0.00 | 0.00 | 0.00 | 32 | 998.2 |
| 20260504213030 | 17 | 302 | 16.1 | 27.4 | 0.00 | 0.00 | 0.00 | 31 | 998.1 |
| 20260504211529 | 17 | 329 | 14.5 | 27.4 | 0.00 | 0.00 | 0.00 | 33 | 997.9 |
| 20260504210034 | 17 | 333 | 12.9 | 24.1 | 0.00 | 0.00 | 0.00 | 34 | 998.0 |
| 20260504204527 | 17 | 315 | 11.3 | 27.4 | 0.00 | 0.00 | 0.00 | 29 | 997.9 |
| 20260504203034 | 16 | 329 | 12.9 | 33.8 | 0.00 | 0.00 | 0.00 | 28 | 997.8 |
| 20260504201522 | 17 | 334 | 17.7 | 30.6 | 0.00 | 0.00 | 0.00 | 27 | 997.9 |
| 20260504200019 | 17 | 324 | 16.1 | 35.4 | 0.00 | 0.00 | 0.00 | 26 | 997.7 |
| 20260504194517 | 18 | 245 | 11.3 | 35.4 | 0.00 | 0.00 | 0.00 | 28 | 997.5 |
| 20260504193017 | 18 | 279 | 14.5 | 33.8 | 0.00 | 0.00 | 0.00 | 26 | 997.4 |
| 20260504191521 | 20 | 292 | 14.5 | 32.2 | 0.00 | 0.00 | 0.00 | 27 | 997.0 |
| 20260504190009 | 19 | 289 | 9.7 | 37.0 | 0.00 | 0.00 | 0.00 | 26 | 996.8 |
| 20260504184507 | 18 | 342 | 12.9 | 29.0 | 0.00 | 0.00 | 0.00 | 27 | 996.6 |
| 20260504183004 | 18 | 11 | 14.5 | 33.8 | 0.00 | 0.00 | 0.00 | 29 | 996.5 |
| 20260504181504 | 18 | 36 | 12.9 | 32.2 | 0.00 | 0.00 | 0.00 | 27 | 996.5 |
| 20260504180006 | 19 | 324 | 12.9 | 24.1 | 0.00 | 0.00 | 0.00 | 27 | 996.3 |
| 20260504174502 | 18 | 260 | 11.3 | 25.7 | 0.00 | 0.00 | 0.00 | 28 | 996.0 |
| 20260504173101 | 20 | 35 | 9.7 | 20.9 | 0.00 | 0.00 | 0.00 | 30 | 996.2 |
| 20260504171556 | 18 | 248 | 6.4 | 25.7 | 0.00 | 0.00 | 0.00 | 34 | 996.2 |